Historique des mesures à Cassis (13260), France
Quotidien Résumé Avril 16, 2018 Unités:  Métrique    US   Métrique/US
« Précédent (Jour)
Suivant (Jour) »
Quotidien Hebdomadaire Mensuel Annuel Période au choix
  Maximum: Minimum: Moyenne:
Température: TemperatureC °C 14.3 °C 17.3 °C
Point de rosée: DewpointC °C 8.3 °C 9.9 °C
Humidité: Humidity % 50 % 59 %
Vitesse du vent: 0 km/h 0 km/h 7.4 km/h
Rafales: 0 km/h - -
Vent:- - SSW
Pression: PressurehPa hPa 1005.3 hPa -
Précipitations: 0 mm    
Historical Graphs
 
 
Mesures pour : Avril 16, 2018
Heure Temperature Point de rosée Pression Vent Vitesse du vent Rafales Humidité Pluie (par heure)
TemperatureC °C DewpointC °C PressurehPa hPa Calm     Humidity % 0 mm
00:10 15.3 °C 8.8 °C 1006.3 hPa NW 7.6 km/h 7.6 km/h 65 % 0 mm
01:10 14.9 °C 8.3 °C 1006.3 hPa Calm     65 % 0 mm
02:10 15.1 °C 8.6 °C 1006.0 hPa NNW 3.4 km/h 5.1 km/h 65 % 0 mm
03:10 14.9 °C 8.3 °C 1005.6 hPa Calm   1.8 km/h 65 % 0 mm
04:10 14.3 °C 8.4 °C 1005.6 hPa North 2.9 km/h 3.4 km/h 68 % 0 mm
05:12 14.7 °C 8.4 °C 1005.6 hPa WNW 4.2 km/h 15 km/h 66 % 0 mm
06:12 14.7 °C 8.6 °C 1005.3 hPa North 5.1 km/h 8 km/h 67 % 0 mm
07:12 14.6 °C 8.5 °C 1006.3 hPa Calm   2.3 km/h 67 % 0 mm
08:11 15.4 °C 8.8 °C 1006.7 hPa NE 4.2 km/h 5.1 km/h 65 % 0 mm
09:11 17.0 °C 9.9 °C 1007.0 hPa ESE 2.9 km/h 2.9 km/h 63 % 0 mm
10:11 18.3 °C 11.1 °C 1007.7 hPa Calm   4.7 km/h 63 % 0 mm
11:11 19.3 °C 11.8 °C 1008.0 hPa Calm     62 % 0 mm
12:11 20.6 °C 12.6 °C 1008.4 hPa ESE 5.1 km/h 10.9 km/h 60 % 0 mm
13:11 20.9 °C 12.3 °C 1008.4 hPa SE 6.4 km/h 6.4 km/h 58 % 0 mm
14:11 21.6 °C 12.4 °C 1008.4 hPa Calm   11.6 km/h 56 % 0 mm
15:11 22.1 °C 12.3 °C 1008.7 hPa SSW 2.3 km/h 6.9 km/h 54 % 0 mm
16:10 22.5 °C 11.8 °C 1008.0 hPa WNW 29 km/h 29 km/h 51 % 0 mm
17:10 22.2 °C 11.3 °C 1008.0 hPa NNW 17.4 km/h 17.9 km/h 50 % 0 mm
18:10 22.1 °C 11.2 °C 1008.4 hPa West 12.7 km/h 37 km/h 50 % 0 mm
19:10 21.2 °C 11.2 °C 1008.4 hPa WNW 23.8 km/h 23.8 km/h 53 % 0 mm
20:10 19.6 °C 11.4 °C 1009.4 hPa NNE 20.9 km/h 20.9 km/h 59 % 0 mm
21:10 17.8 °C 11.1 °C 1010.0 hPa Calm   3.4 km/h 65 % 0 mm
22:10 16.9 °C 10.7 °C 1010.7 hPa NW 37 km/h 37 km/h 67 % 0 mm
23:10 16.6 °C 10.2 °C 1010.7 hPa Calm   12.7 km/h 66 % 0 mm
Observations météo à CASSIS
WU-History script by Weather Underground - 1 mb